Theta_e
316 318 320 321 323 324 324 325 325 326 327 328 327 327 327 327 325 324 325 324 324 323 322 323 322 321 321 321 320 321 322 321 320 320 320 320 320 322 325 325 325 325 325 326 325 323 323 321 322 320 321 321 320 319 319 317 318 319 316 314 315 313 314 313 312 309 309 309 311 309 309 309 307 307 305 301 299 298 297 296 294 295 294 295 296
311 313 318 320 321 322 322 323 321 323 325 326 326 327 327 327 326 326 326 325 325 324 323 323 324 324 322 321 321 321 321 320 320 321 322 321 320 322 325 325 326 326 325 326 326 325 323 322 321 322 321 321 321 320 318 315 318 317 317 314 312 313 314 313 313 310 307 307 306 305 305 307 305 306 303 299 298 298 296 294 293 293 294 294 295
310 314 317 319 320 321 322 322 323 324 324 325 326 326 326 326 327 327 327 327 326 326 325 323 324 324 324 322 322 320 323 323 322 322 324 324 322 322 325 326 326 326 326 326 326 326 325 323 322 322 322 321 320 319 317 318 319 318 317 317 313 312 312 312 313 309 305 306 304 304 301 303 305 304 304 300 299 297 294 293 293 293 294 294 294
308 311 315 318 319 320 321 321 322 323 323 323 325 325 326 325 326 327 327 327 327 327 325 326 324 324 322 322 323 323 322 324 325 325 325 326 324 324 325 327 326 326 326 326 327 326 325 323 322 322 322 321 321 320 318 319 319 318 317 315 315 314 313 314 310 310 307 307 304 302 302 299 297 302 299 300 298 295 293 293 293 292 292 293 292
308 310 314 317 318 319 321 321 322 322 323 323 324 325 326 325 326 327 328 327 328 326 326 328 326 325 324 321 321 322 321 323 323 324 325 326 326 325 325 326 327 327 327 327 326 326 326 325 323 322 322 321 321 321 319 320 320 320 318 316 316 317 315 313 313 310 309 307 303 298 297 297 297 299 297 297 297 293 294 292 291 291 291 291 291
308 309 313 317 318 319 320 321 321 322 322 323 324 325 325 325 325 326 328 328 328 327 328 329 328 327 325 323 322 321 321 322 322 323 324 324 326 327 326 327 327 327 327 327 326 325 326 325 324 322 321 321 321 321 320 319 319 319 318 318 317 316 316 313 313 310 307 306 307 302 297 296 297 299 298 292 297 295 294 293 291 291 290 290 290
306 308 312 316 318 318 319 320 321 321 323 324 324 324 324 325 325 325 326 327 328 328 328 327 328 328 327 325 324 323 322 323 325 326 326 327 327 326 327 327 328 327 327 327 327 326 326 325 324 324 322 321 320 321 320 319 320 320 319 318 318 316 314 312 311 312 308 306 304 304 303 301 297 298 295 292 292 294 294 293 293 293 291 290 291
305 307 310 316 318 318 318 320 321 322 323 323 324 324 324 324 324 324 325 325 328 328 327 328 328 328 327 326 325 325 324 324 325 326 327 326 327 327 327 327 328 328 328 328 327 326 325 325 325 324 323 322 320 321 321 320 320 320 320 320 319 318 315 314 311 310 310 307 303 302 300 298 296 294 295 296 293 292 292 294 293 292 292 291 290
305 307 309 314 317 318 319 320 321 322 322 323 323 324 324 324 324 324 325 325 326 327 327 327 327 328 327 327 325 325 326 325 324 325 325 325 326 327 326 327 327 328 328 328 327 327 323 325 325 324 323 321 319 321 320 320 320 319 318 319 318 317 316 314 312 309 309 306 302 299 297 297 295 293 291 290 288 290 290 291 291 292 291 292 290
304 307 309 313 317 319 320 321 321 322 322 323 323 324 324 324 323 323 324 325 325 326 326 327 326 325 327 327 326 325 324 324 324 325 325 326 325 326 326 326 326 327 328 328 327 327 326 325 325 324 323 322 319 321 320 320 320 320 319 319 319 317 315 313 311 310 310 307 307 303 300 294 294 293 292 290 290 290 290 291 290 289 288 290 291
302 305 307 311 315 318 319 319 320 321 322 322 322 323 323 323 323 323 324 325 325 325 326 326 326 326 326 326 326 325 324 324 324 325 325 325 325 325 325 326 326 326 327 327 327 327 327 325 325 325 323 321 319 321 320 320 319 319 319 318 317 317 315 313 310 309 308 305 304 303 301 298 293 289 288 291 289 287 288 290 289 289 287 287 290
302 302 304 306 309 314 316 317 318 319 320 320 321 321 322 322 323 322 323 324 325 325 325 326 326 326 326 326 326 326 325 324 324 324 324 324 325 325 325 325 325 326 326 326 326 327 326 326 325 324 322 321 321 321 320 320 319 318 317 317 317 315 315 313 311 307 306 304 303 302 301 298 294 292 291 292 291 289 290 288 289 287 287 287 290
301 301 302 303 303 307 312 315 316 317 319 320 320 321 321 321 321 321 322 323 324 325 325 325 326 326 326 325 326 325 325 325 325 325 325 325 325 325 324 324 324 324 325 326 326 325 325 324 324 324 323 321 321 321 320 319 318 317 317 316 315 314 313 312 311 308 306 304 303 301 300 297 295 293 293 292 291 291 289 287 288 286 283 286 287
299 300 301 302 303 303 306 313 314 315 317 319 319 319 320 320 320 321 322 323 324 324 325 325 325 326 326 326 326 325 325 325 325 325 325 325 325 325 324 324 324 324 325 325 327 325 323 324 323 324 323 322 321 321 320 319 318 317 316 315 314 314 312 311 310 308 304 302 300 299 297 295 292 292 293 291 290 290 287 287 285 284 285 284 286
298 298 299 300 300 301 302 305 310 312 313 316 318 318 319 319 320 319 320 321 322 323 324 324 325 326 326 327 326 326 326 325 325 325 325 325 325 324 324 325 324 325 325 326 323 324 323 323 322 323 322 321 320 321 320 319 318 317 316 315 312 310 310 308 306 304 302 298 296 297 294 292 291 291 290 291 291 290 289 287 285 284 282 283 284
296 297 297 298 299 299 300 301 303 306 308 311 314 316 318 319 320 320 320 321 321 321 323 324 325 326 326 326 326 325 323 324 324 324 325 325 325 324 324 325 325 325 325 323 323 323 322 322 320 321 321 320 319 321 319 318 317 316 314 312 311 308 308 306 305 303 301 297 295 293 293 291 291 290 290 290 289 289 289 288 286 284 283 281 283
294 295 295 296 296 299 301 301 301 301 303 308 312 314 317 318 318 318 320 320 320 321 322 323 324 324 325 326 326 325 324 323 324 324 324 324 324 324 324 325 325 324 324 321 322 321 322 321 320 319 319 319 319 319 318 317 315 314 311 310 310 306 307 306 304 304 300 296 294 293 293 291 289 289 290 290 289 289 289 288 287 285 284 282 280
295 296 296 296 297 298 298 298 300 302 302 304 309 312 315 317 318 318 318 319 320 321 321 323 322 323 323 324 325 325 325 324 324 324 324 323 323 324 324 323 323 323 323 321 320 320 320 315 320 319 318 317 318 317 316 315 313 312 311 311 310 306 305 302 301 300 296 294 292 291 291 290 289 289 288 289 288 288 288 288 287 286 284 283 281
295 295 294 294 294 295 295 296 295 296 297 299 300 302 306 309 314 317 317 318 319 320 320 321 322 323 323 323 324 324 325 324 324 323 322 323 323 323 322 323 321 319 318 318 318 317 317 316 317 316 314 314 314 314 314 313 312 310 309 308 304 304 303 300 297 297 293 292 291 289 289 289 288 288 288 288 287 288 287 286 286 287 286 284 283
296 296 294 295 295 295 296 296 296 297 296 297 298 298 300 303 305 307 308 308 309 313 315 317 319 320 321 320 320 323 323 322 322 321 320 321 322 321 321 319 320 317 319 319 318 316 314 314 313 313 312 311 311 312 313 312 311 310 307 304 302 302 301 299 295 294 293 291 290 288 288 288 287 287 287 287 286 287 287 286 286 287 285 285 285
295 295 295 295 295 295 295 295 296 296 296 297 298 298 298 299 299 301 304 305 306 308 309 312 312 314 314 316 317 317 318 319 316 318 318 319 319 316 319 320 316 318 318 317 317 317 316 314 312 310 311 311 312 311 311 311 309 307 305 304 300 300 299 296 294 291 289 289 288 288 287 287 286 286 286 286 286 286 285 286 286 285 285 284 285
294 294 294 294 294 294 295 293 293 295 296 297 296 298 299 298 299 299 299 301 303 303 305 307 307 311 312 313 313 311 315 315 315 315 315 316 316 316 316 313 315 316 315 316 316 317 316 315 313 312 311 311 311 311 309 308 306 303 301 300 298 298 296 294 292 291 288 288 287 286 286 286 285 286 285 285 286 285 285 285 285 285 285 284 284
294 293 292 292 292 293 293 294 293 293 293 293 293 295 296 295 296 297 300 302 302 303 303 304 306 307 308 308 307 308 308 308 311 310 311 312 312 311 312 315 314 313 313 315 316 315 314 314 313 312 312 310 310 308 307 307 305 303 300 299 297 297 295 292 291 290 288 286 286 286 286 285 285 285 285 285 285 285 284 284 284 284 284 284 283
291 290 290 290 290 291 292 293 292 291 292 294 295 295 295 294 295 295 296 297 298 298 300 302 301 301 301 301 303 300 302 302 306 304 306 305 307 308 309 313 313 313 314 313 314 315 313 313 312 310 310 309 308 307 305 304 304 302 300 299 296 295 294 292 291 289 287 286 286 285 285 285 285 284 284 284 284 284 284 284 284 283 284 284 284
291 291 292 291 291 292 294 294 294 293 292 292 293 294 294 294 294 295 295 294 295 297 299 297 295 297 299 300 302 303 304 302 302 300 302 302 303 305 307 312 311 311 312 311 310 311 312 311 311 310 309 308 307 306 304 303 302 300 300 298 295 294 293 291 291 289 288 286 285 285 285 285 284 284 284 283 284 284 284 284 284 284 284 284 284
291 291 291 292 294 293 291 291 292 293 293 294 294 294 294 292 295 293 295 293 293 293 295 295 294 297 297 300 302 303 304 303 302 301 300 302 305 306 308 307 310 312 309 309 311 309 309 310 309 309 309 308 307 305 304 302 300 297 297 296 294 293 292 291 289 288 287 286 285 285 285 285 284 284 284 284 284 284 284 284 284 283 283 283 283
292 292 291 290 290 292 293 292 293 292 291 293 294 295 293 293 294 293 294 295 293 293 294 296 294 295 296 296 298 299 299 300 300 300 299 300 302 302 304 306 304 308 308 307 306 307 306 309 309 308 308 307 305 303 302 300 297 295 295 293 292 291 290 289 288 287 287 286 285 285 285 285 284 284 284 284 284 284 284 284 284 284 283 283 282
291 291 292 294 294 291 290 292 291 293 292 293 293 294 295 294 295 293 291 292 293 292 291 291 292 292 293 293 295 298 299 299 298 299 299 299 299 300 303 302 300 306 306 307 308 308 307 307 308 307 307 305 303 301 299 297 295 293 292 292 291 290 289 288 287 287 286 285 284 285 285 285 285 284 285 284 285 284 285 284 284 283 283 283 282
290 292 293 293 293 292 292 291 292 290 292 291 292 292 291 291 291 292 290 293 290 292 291 292 291 292 294 295 296 295 293 292 294 296 296 297 297 296 296 296 296 298 302 302 303 303 301 301 299 301 300 299 300 300 298 295 293 292 292 290 290 289 288 287 286 285 284 284 284 284 285 285 285 285 286 286 286 286 285 284 283 283 283 282 282
293 295 295 295 294 293 292 292 290 292 292 292 292 293 294 295 294 292 293 291 291 292 293 294 295 295 294 294 295 296 297 294 294 294 293 293 293 293 294 293 294 295 295 295 296 296 295 297 298 297 296 296 297 297 292 293 293 293 292 291 289 288 287 287 286 285 284 283 283 284 285 285 285 285 285 286 287 287 287 286 284 283 283 282 281
293 294 294 295 295 294 291 292 293 293 293 294 295 295 293 293 293 293 294 292 293 294 295 295 297 295 294 294 295 295 294 294 293 290 290 290 291 290 291 292 292 292 292 291 291 293 292 293 294 294 294 294 296 296 292 294 294 293 292 290 288 287 287 286 285 285 284 283 283 283 284 284 285 285 285 287 288 288 287 287 286 285 285 283 282
293 293 293 293 294 294 294 295 294 293 293 293 294 293 293 294 294 294 294 293 295 296 297 296 296 295 294 294 293 292 292 292 291 291 290 289 288 289 289 289 289 290 289 289 291 292 292 291 292 292 293 293 295 293 294 294 294 293 291 289 288 287 286 286 285 284 284 283 283 283 283 284 284 284 285 286 286 287 287 287 286 286 286 286 285
293 293 293 294 295 295 296 296 294 294 294 294 294 293 294 295 294 293 294 296 297 296 296 296 294 293 293 292 291 291 291 290 290 290 289 288 288 288 288 289 289 288 288 290 291 291 291 290 291 292 292 292 292 293 293 293 293 293 292 290 288 287 286 285 285 284 283 283 282 282 282 283 283 284 284 284 284 285 286 287 287 286 286 286 286
293 294 294 294 295 295 296 296 296 296 296 295 294 295 295 293 292 291 294 296 297 296 296 295 293 293 292 291 290 290 290 289 288 288 288 288 288 289 288 288 288 288 289 289 289 290 290 290 291 292 292 290 291 290 293 293 292 292 292 290 287 286 285 285 284 284 283 282 282 282 282 282 282 282 283 283 283 283 283 283 283 283 282 284 285
293 293 293 294 296 296 296 295 294 294 291 291 291 292 289 290 291 292 294 296 296 295 295 293 292 291 290 290 290 290 289 288 288 288 288 288 288 287 288 288 288 288 289 290 289 289 290 289 289 289 290 289 290 291 292 293 292 292 292 289 286 286 285 284 283 283 283 282 282 282 282 282 281 282 282 282 282 282 282 282 281 281 281 281 282
295 295 295 294 293 295 296 296 295 291 291 293 294 291 291 290 289 292 292 293 294 294 294 292 291 290 290 290 289 289 288 288 287 287 288 288 288 288 288 287 287 287 288 288 288 289 288 288 288 288 289 289 287 291 292 292 292 292 291 287 286 285 284 283 282 282 282 282 282 281 281 281 281 281 282 284 283 282 281 280 280 280 280 280 281
297 295 296 295 296 295 296 293 291 293 293 292 289 290 290 289 289 289 291 292 292 292 292 291 291 290 290 289 289 289 288 288 287 287 287 287 287 287 287 287 287 287 287 287 288 287 288 288 287 288 289 289 287 289 291 291 292 292 290 286 285 285 284 283 282 282 282 281 281 281 281 280 280 280 283 285 285 283 281 280 280 279 280 279 279
295 293 292 291 290 291 291 291 290 289 289 288 288 290 289 289 289 289 290 290 291 291 291 290 290 290 289 289 289 289 288 287 287 287 287 287 287 287 287 287 288 287 287 287 287 287 287 287 287 287 288 287 286 287 290 291 291 291 289 286 285 284 283 282 281 281 280 280 280 281 281 280 280 280 284 285 285 283 280 280 280 279 278 278 278
294 294 294 291 289 289 288 287 289 291 288 287 288 289 289 289 288 289 290 290 290 290 290 290 290 290 289 289 289 289 288 287 287 287 287 287 287 286 286 286 287 287 286 286 286 286 286 286 286 286 286 287 286 286 289 290 291 291 288 285 285 284 282 282 281 280 279 279 279 281 281 281 280 281 285 286 286 283 281 281 280 279 278 278 278
287 288 288 288 286 289 288 289 291 292 288 287 288 289 288 288 287 288 289 290 290 290 290 290 290 289 289 289 289 288 287 287 287 286 286 286 286 286 286 286 286 286 286 286 286 286 286 285 285 286 286 286 286 286 287 290 290 291 289 285 285 283 282 281 281 280 279 278 279 279 281 283 283 284 286 287 286 285 281 281 281 279 278 278 280
287 287 285 287 286 288 288 287 286 286 284 285 287 287 286 286 287 288 289 289 289 290 290 290 290 289 289 288 288 288 287 287 287 286 286 286 286 286 286 286 286 286 286 285 285 285 285 285 285 285 285 286 286 286 286 289 290 290 290 286 284 284 283 282 281 280 279 278 278 279 279 283 284 284 286 287 287 286 284 282 281 280 280 280 280
283 284 285 285 284 284 284 284 282 283 284 285 286 287 284 285 286 287 286 286 289 289 289 289 289 289 288 287 287 287 287 286 286 286 286 285 285 286 286 286 286 285 285 285 285 285 285 285 285 285 285 285 285 286 286 287 289 290 290 288 284 284 284 282 281 280 279 278 278 279 279 282 285 285 285 287 287 287 286 282 281 283 283 282 279
285 284 282 285 284 284 283 283 282 282 283 283 285 284 282 282 285 282 282 284 287 289 289 289 289 288 287 287 287 286 286 286 286 286 286 285 285 285 285 285 285 285 285 284 284 284 284 284 284 284 285 285 285 285 285 286 287 289 290 288 286 284 285 282 281 280 279 278 278 278 279 282 285 285 286 287 287 288 287 283 284 284 283 283 280
282 283 283 283 283 283 283 282 281 280 280 281 285 284 282 283 281 282 281 283 287 289 289 288 287 287 286 286 286 286 286 286 286 286 286 285 285 285 285 285 285 285 284 284 283 283 283 283 283 283 283 284 284 285 285 285 286 288 289 289 288 287 286 281 281 280 279 277 277 278 279 282 284 285 285 286 288 287 286 286 285 284 284 283 278
284 283 282 283 284 284 283 282 280 280 280 279 281 284 282 282 282 281 282 284 286 287 287 286 286 286 286 286 286 286 286 286 286 286 285 285 285 285 284 284 284 284 284 283 282 282 282 283 282 282 282 282 283 283 284 284 285 286 288 289 288 287 287 285 280 278 278 278 280 282 282 282 283 284 285 286 286 287 287 286 285 284 283 281 277
282 282 283 284 285 285 283 282 281 280 279 279 280 282 283 279 280 279 281 283 285 286 285 285 285 285 285 285 285 285 285 285 285 286 285 285 285 284 284 283 284 283 283 283 282 282 282 282 282 282 282 282 282 282 282 282 284 284 285 287 287 287 285 285 282 279 281 283 283 283 283 283 283 283 284 284 283 284 286 286 285 284 282 279 276
283 284 285 285 285 284 282 281 280 279 279 279 279 279 279 279 279 280 281 282 282 282 283 283 283 283 284 284 284 284 284 284 285 285 284 284 284 284 283 283 283 283 282 282 282 281 281 281 281 281 281 281 281 281 281 281 282 282 282 282 283 284 284 284 281 279 281 281 283 283 282 282 282 283 283 283 283 283 283 284 283 282 279 277 276
284 284 285 285 284 282 281 280 279 278 278 279 279 279 278 278 279 280 281 281 281 281 281 281 281 281 281 282 282 280 282 283 283 283 283 282 283 284 283 282 282 282 281 281 281 281 280 280 280 280 279 278 279 279 280 281 280 280 279 279 278 278 279 278 278 277 277 278 279 282 282 281 281 281 281 281 281 279 279 278 279 277 275 275 275
283 284 285 284 284 282 280 279 277 278 278 278 277 276 275 277 279 280 281 280 279 279 279 278 278 278 278 277 278 279 279 279 278 277 276 277 279 277 278 277 277 277 278 278 276 275 275 273 275 274 274 273 273 275 276 281 279 282 280 278 278 279 278 277 279 281 276 275 276 276 276 278 278 278 279 278 277 276 275 275 275 273 272 272 273
284 285 284 283 282 280 278 277 277 277 276 275 273 271 271 273 275 279 280 279 278 278 277 276 276 277 276 276 275 275 275 276 275 275 275 275 279 280 278 276 274 280 282 282 281 274 274 275 274 275 276 277 276 276 282 284 284 284 284 284 283 283 283 280 282 284 279 274 274 274 275 275 276 277 277 276 275 275 274 273 272 273 272 271 271
283 283 282 281 280 279 277 276 276 275 273 272 271 270 270 271 273 277 279 279 278 278 277 276 276 275 276 276 275 275 275 275 274 275 275 275 273 277 282 283 281 281 282 283 283 284 283 281 277 273 275 283 283 283 284 285 285 285 285 285 285 285 285 284 284 281 276 275 275 274 275 275 275 276 276 276 275 274 273 272 272 271 272 271 271
Wind_Speed
12 12 11 11 12 11 10 10 10 11 12 13 14 13 13 12 12 13 11 11 10 10 10 10 10 9 8 10 10 10 10 9 8 8 9 9 9 9 10 9 10 10 9 8 8 7 7 6 6 5 6 7 7 7 6 7 6 6 6 4 5 3 1 1 2 4 2 3 5 2 2 2 3 4 5 5 4 4 5 4 2 5 3 4 4
5 6 10 10 10 11 9 10 9 12 13 14 15 15 12 12 13 13 10 11 11 11 10 10 10 11 12 12 11 10 9 9 10 9 10 9 10 10 10 11 11 11 10 9 9 8 8 7 7 7 7 7 7 7 6 6 6 5 5 3 1 5 4 4 4 3 1 3 4 1 2 2 2 3 4 3 4 4 4 4 4 4 4 4 3
9 11 11 12 13 13 11 10 11 14 14 13 13 11 12 12 13 13 12 12 11 11 11 11 9 8 8 6 9 7 8 9 9 10 9 10 11 11 11 11 11 10 11 10 9 9 9 8 8 7 7 7 7 7 6 6 7 7 7 7 4 1 2 3 5 3 3 3 3 5 2 3 1 2 1 1 4 4 4 4 3 4 3 3 4
12 12 13 14 14 13 12 11 13 12 11 10 11 14 13 12 12 13 13 12 11 11 11 9 8 6 4 4 5 7 7 8 8 8 9 9 11 11 10 11 11 11 11 11 10 10 10 9 8 7 8 7 8 7 6 8 7 7 6 7 7 4 3 4 3 4 4 6 4 3 5 5 3 5 3 1 0 4 4 3 3 3 3 2 4
14 12 11 12 13 14 16 16 13 13 13 13 14 14 13 16 14 12 11 12 11 11 11 9 7 7 6 4 4 5 2 6 7 8 11 10 9 10 11 10 12 12 12 12 11 11 11 10 9 8 8 8 8 8 8 8 8 8 9 7 7 7 6 4 4 3 4 4 6 4 2 1 5 4 5 1 0 2 0 2 3 4 4 3 4
16 16 15 15 16 15 14 13 14 14 14 15 15 16 15 13 12 11 10 11 12 11 12 11 10 10 10 10 10 10 11 10 13 14 12 12 13 8 8 11 12 12 12 12 12 11 11 11 10 9 9 8 8 8 8 7 8 8 8 8 8 6 8 6 6 3 3 4 4 4 4 4 5 4 7 4 1 1 1 1 2 4 4 4 3
10 12 12 13 14 14 14 14 15 15 16 14 14 14 14 12 13 13 12 11 11 12 13 12 12 11 13 14 13 13 13 11 10 9 10 9 7 9 9 8 10 12 11 11 12 12 11 10 10 10 9 8 8 8 9 9 8 9 8 8 8 7 6 7 8 7 1 2 1 1 2 2 3 8 7 4 4 1 1 2 1 2 4 4 4
14 14 13 14 16 17 18 18 16 18 17 13 14 13 15 16 14 14 12 12 12 12 14 14 14 13 13 13 12 12 13 12 11 10 8 8 9 10 9 9 9 10 11 11 11 11 10 9 9 9 8 8 8 9 9 8 7 7 9 9 8 8 8 8 8 7 8 5 3 3 2 2 1 1 2 8 7 8 5 3 3 2 0 3 4
14 14 14 15 16 16 16 16 17 17 14 15 15 15 15 14 14 13 14 13 12 14 14 15 14 14 14 13 13 11 11 9 7 7 8 8 10 10 10 10 10 10 10 10 10 10 10 10 9 9 8 8 8 8 8 8 9 8 8 8 8 7 7 7 7 8 8 7 4 2 2 2 0 0 1 3 4 5 2 6 4 1 2 1 3
11 15 15 15 15 16 17 17 16 16 15 15 14 12 13 13 14 15 16 14 13 13 14 15 15 13 14 15 16 13 10 8 6 9 9 9 11 12 11 11 10 10 10 10 10 10 10 10 10 11 10 9 9 8 8 8 8 8 9 9 9 9 7 8 8 7 8 7 8 7 7 2 1 1 1 2 3 3 7 9 6 7 5 4 0
10 11 12 13 14 16 15 15 16 15 12 13 13 13 13 13 14 16 18 14 13 14 15 16 15 14 15 16 17 16 14 11 10 10 10 10 12 12 11 11 10 11 10 11 11 11 12 12 11 11 9 9 9 9 9 8 8 9 8 9 9 9 8 7 7 5 7 7 7 8 9 9 8 7 8 6 5 3 3 3 3 4 6 3 4
11 11 11 11 10 10 10 13 13 13 11 12 12 12 12 13 13 16 15 15 14 14 14 15 15 16 16 16 17 16 14 13 14 14 14 15 14 13 11 10 11 10 10 10 11 12 11 12 12 10 10 9 10 8 8 8 7 7 7 8 8 8 7 8 7 7 7 7 7 7 7 7 4 3 5 6 7 6 7 7 6 2 1 1 2
10 11 11 9 11 12 12 12 11 10 13 15 15 14 13 13 14 16 17 16 15 15 16 17 15 16 17 17 16 14 14 14 14 14 13 13 12 12 11 12 10 10 11 12 12 13 12 11 11 12 10 10 10 8 8 8 8 7 8 8 7 8 8 8 7 7 8 8 8 7 7 7 7 4 5 6 4 6 7 7 1 1 3 2 2
8 9 11 12 12 11 11 12 13 12 12 14 14 13 12 12 14 15 18 15 13 13 16 16 17 17 16 15 14 12 14 14 13 12 12 11 10 11 12 12 12 13 12 13 12 12 10 11 12 12 11 10 10 10 9 9 9 8 8 8 8 7 7 8 8 7 7 6 5 7 5 7 4 3 6 6 6 7 6 8 5 2 1 3 2
7 8 8 9 10 9 9 10 10 10 11 11 10 12 11 12 13 16 16 14 14 15 14 16 16 16 14 14 13 12 12 12 12 11 10 11 10 11 11 10 11 11 11 11 8 11 11 10 10 11 10 10 9 9 9 9 9 8 8 8 7 7 7 7 6 7 7 6 6 7 7 6 5 5 6 6 6 6 7 7 8 7 1 0 1
2 5 6 7 8 7 7 7 8 8 9 9 9 9 10 12 13 15 16 13 13 13 13 15 14 12 12 14 15 13 11 10 10 10 11 11 11 11 11 11 10 9 9 8 9 9 9 10 9 10 10 9 9 10 10 9 8 8 7 7 8 5 7 7 7 7 7 7 6 6 7 7 5 5 5 6 6 6 6 6 7 7 9 3 1
4 5 5 6 5 6 8 8 8 7 7 10 11 11 13 12 10 11 11 10 11 13 14 13 12 11 13 14 13 13 14 14 13 13 13 11 10 11 11 11 10 9 9 8 9 9 9 10 10 9 9 10 10 10 10 9 8 8 8 7 8 6 7 8 6 7 7 7 6 8 8 7 6 4 4 5 6 6 6 6 7 8 7 7 5
7 7 6 6 7 7 5 4 6 8 10 11 12 11 12 13 13 14 13 14 13 14 14 13 13 13 13 13 14 15 15 15 13 13 11 10 11 10 9 9 11 9 9 8 9 10 9 10 10 9 8 8 10 9 9 9 9 8 8 9 8 8 8 5 6 7 7 6 6 5 6 7 5 5 6 5 6 7 6 6 5 5 5 7 5
5 6 6 5 5 5 6 6 5 5 5 6 6 5 6 7 9 12 14 14 13 11 10 10 12 11 11 13 14 13 13 13 12 11 9 11 12 11 10 10 7 8 8 9 9 8 9 8 8 8 8 8 8 9 9 9 9 8 8 8 6 7 7 7 6 7 6 7 7 7 5 7 6 6 6 6 5 7 6 6 5 4 3 5 7
6 5 5 5 6 6 7 7 6 6 5 5 5 3 6 6 5 6 6 4 5 8 9 10 11 10 10 8 9 11 10 10 9 10 10 11 11 10 9 8 10 8 9 10 9 10 9 9 7 8 8 8 9 9 10 10 10 10 10 8 8 9 9 9 7 6 7 7 8 8 7 8 6 5 6 6 6 5 6 6 5 5 3 3 5
4 4 5 5 5 5 4 3 2 0 0 1 2 4 4 2 5 5 7 7 7 8 7 8 6 7 7 8 8 7 8 7 6 8 9 9 8 8 8 8 6 9 9 9 10 10 10 10 9 8 9 9 10 10 9 9 10 10 9 10 10 9 9 6 7 7 5 7 8 8 7 6 6 8 6 6 6 6 5 5 5 5 5 3 5
5 5 5 4 4 2 1 1 2 1 1 1 0 0 2 4 5 5 5 6 7 6 6 6 5 6 7 7 7 6 7 6 7 7 8 8 7 8 7 6 8 8 9 10 10 10 9 10 10 10 9 9 10 11 11 10 11 10 9 7 8 10 9 9 8 9 7 7 7 8 7 7 6 7 7 7 7 7 6 6 5 6 5 5 3
5 5 4 4 4 4 4 5 4 4 4 3 3 4 4 4 4 4 5 7 6 6 5 5 6 6 7 6 6 6 6 6 8 7 8 8 7 7 7 9 9 8 7 9 10 9 10 10 9 10 10 10 11 10 10 11 11 12 12 10 10 11 11 11 10 10 9 7 8 8 8 7 5 7 6 6 6 6 6 7 6 4 5 4 3
4 3 3 3 3 2 2 3 4 4 5 6 6 5 4 4 4 3 4 3 3 2 1 1 2 3 3 4 5 3 4 5 7 6 7 6 7 6 6 7 7 7 8 7 8 9 9 10 10 10 10 10 11 10 10 11 13 13 12 12 11 11 10 11 12 11 10 9 9 8 8 8 7 8 7 6 5 6 6 6 6 4 5 5 4
4 4 4 3 2 4 5 5 5 5 4 4 4 4 3 4 3 4 4 3 3 2 2 1 3 3 2 3 2 1 2 2 4 4 5 5 5 6 6 7 6 7 7 7 7 7 10 10 10 11 11 11 11 11 11 11 11 11 13 12 12 11 11 11 11 12 11 11 10 10 10 8 8 9 7 7 7 7 6 6 6 5 5 5 4
5 4 3 5 7 5 5 5 5 5 5 5 4 4 4 4 6 5 5 4 3 3 5 5 5 5 4 3 2 1 2 3 4 4 4 4 5 5 6 5 7 9 7 7 9 8 9 9 9 10 11 12 11 11 12 13 10 9 10 10 11 11 10 10 10 10 11 11 11 10 10 10 10 11 10 8 8 8 7 7 7 6 5 5 5
5 4 5 2 3 6 7 6 6 5 5 6 6 6 6 5 6 5 5 5 5 5 5 6 5 5 4 4 4 4 3 3 4 4 4 4 4 4 5 5 5 6 8 8 6 8 8 9 10 11 12 12 11 11 10 9 8 8 9 10 9 8 8 8 8 10 11 11 10 9 10 10 11 10 11 11 10 8 8 8 8 7 6 6 6
3 3 4 6 6 5 5 6 5 6 6 6 6 7 7 6 6 5 4 4 3 4 4 4 4 4 4 3 2 1 1 2 1 1 3 4 4 5 6 5 5 7 7 8 9 11 10 10 11 11 11 11 11 11 10 9 9 9 10 10 10 10 8 8 8 8 9 10 10 10 10 11 10 10 11 10 11 10 8 7 6 7 7 7 6
5 7 6 5 6 5 5 5 7 5 6 6 6 6 5 5 5 5 5 5 4 5 4 4 4 4 3 3 3 2 2 1 1 1 2 2 3 2 2 2 3 4 4 5 5 5 5 6 5 6 5 6 8 9 9 9 10 9 8 8 8 9 10 10 9 7 5 6 7 8 8 8 9 10 12 11 11 10 10 9 7 8 8 7 6
8 9 8 7 6 5 5 5 5 7 6 6 6 7 7 8 7 6 5 5 5 5 5 4 4 4 3 3 3 3 2 1 0 1 1 0 0 0 1 3 3 2 2 1 2 2 4 5 6 5 5 5 5 5 9 14 13 12 12 10 9 10 10 9 9 9 7 6 6 7 7 11 11 11 12 12 12 11 9 8 11 10 9 8 7
9 9 7 6 7 7 5 5 7 7 8 8 8 7 6 6 6 6 6 6 6 6 5 4 4 3 3 3 3 3 4 4 3 3 2 2 2 2 2 2 1 2 2 2 3 3 3 3 4 4 5 5 6 6 11 13 13 12 10 10 11 10 9 9 10 11 11 10 7 6 5 8 9 10 10 13 12 11 10 8 8 9 8 11 10
11 9 7 7 7 7 7 8 8 8 8 7 8 7 7 9 7 8 7 6 6 6 6 6 5 5 5 5 5 5 5 5 4 4 3 3 3 3 3 2 2 3 2 3 3 4 4 4 4 4 5 6 6 8 12 14 15 15 12 10 8 9 10 10 10 10 9 9 10 8 6 6 7 8 8 9 10 11 10 10 10 10 9 7 8
11 10 10 10 10 9 9 9 7 8 8 10 8 7 10 9 9 8 7 7 7 7 6 6 6 6 6 6 5 5 5 4 4 4 4 4 4 3 3 3 4 3 3 3 4 4 4 4 5 6 6 5 5 7 10 12 12 13 14 11 9 9 10 10 11 11 11 11 10 9 8 6 5 10 8 7 8 8 9 10 10 10 9 11 11
10 10 10 9 6 6 8 10 10 10 11 8 10 11 9 7 7 7 9 8 8 7 7 7 6 6 6 6 5 5 5 5 3 4 4 4 4 5 4 3 3 3 4 3 3 4 4 5 6 7 6 5 5 7 11 12 12 12 13 10 6 8 8 9 10 10 9 10 11 11 10 9 7 8 7 8 8 8 8 8 7 6 6 7 10
10 9 9 8 10 9 9 7 7 8 5 5 6 6 4 5 7 8 7 8 8 8 7 7 7 6 5 5 6 5 5 5 4 4 5 5 5 4 4 4 4 4 5 6 6 5 6 5 5 4 4 5 5 8 11 13 12 12 11 7 5 6 6 7 7 7 9 10 10 9 10 11 10 9 8 10 10 9 9 7 7 6 6 6 6
10 11 9 9 9 11 11 11 7 4 6 7 8 6 6 5 5 7 7 7 7 7 7 7 7 7 7 6 6 5 5 5 5 5 5 6 5 5 6 4 4 3 2 2 3 4 5 5 4 4 5 5 4 10 12 14 15 15 15 7 6 7 7 7 7 7 7 7 8 9 9 9 10 10 11 15 11 9 9 9 8 7 6 5 6
10 9 9 10 10 9 10 6 5 7 7 7 5 6 7 7 6 6 7 7 7 7 7 7 7 6 6 5 6 7 6 7 6 6 6 6 6 5 4 4 5 4 4 4 4 3 3 3 4 5 6 6 5 9 13 15 16 17 12 7 7 7 7 8 9 7 7 7 7 7 7 8 9 9 13 17 16 13 9 9 9 8 6 5 6
9 7 7 5 5 4 2 5 6 5 4 5 6 8 8 8 7 7 8 8 8 8 7 7 7 7 7 6 6 6 7 6 5 6 6 4 3 2 3 3 4 4 3 2 2 1 1 2 3 3 4 4 3 6 12 13 15 17 13 9 8 7 7 6 5 4 4 4 4 7 6 6 9 9 16 18 18 13 9 9 9 9 8 8 7
9 9 8 6 5 5 6 5 6 6 5 6 8 9 9 8 8 8 8 8 8 7 7 8 6 6 6 6 6 5 5 5 5 4 3 4 4 3 2 2 2 2 2 2 2 2 2 2 2 3 4 4 3 4 9 10 13 14 11 6 6 6 6 5 4 4 3 4 4 6 8 7 7 9 18 18 19 14 9 10 10 9 9 10 10
3 2 4 5 6 6 4 5 7 8 5 6 6 7 6 7 6 6 7 8 8 7 5 5 5 5 5 5 5 4 3 3 3 2 1 2 2 3 3 3 2 2 2 2 2 2 2 2 2 3 3 4 4 4 6 10 11 12 11 6 4 6 7 7 6 7 7 5 6 7 8 11 11 13 16 18 19 18 11 8 8 9 9 13 7
7 5 4 6 3 4 5 3 1 2 4 4 5 6 5 5 6 7 8 5 3 4 4 5 5 6 6 5 4 4 5 3 3 3 3 3 2 3 3 3 3 3 3 3 2 2 2 2 1 1 1 0 1 2 4 9 11 13 13 11 7 8 6 7 7 7 7 7 7 6 6 11 14 15 17 18 18 19 13 9 10 11 11 3 7
3 6 6 6 5 6 6 5 3 3 4 5 5 6 4 5 5 6 4 3 4 5 5 5 6 6 6 6 5 4 4 5 5 5 5 4 3 4 4 4 4 4 4 4 3 3 3 3 3 2 1 1 2 0 1 4 7 8 8 7 3 2 2 5 4 5 4 5 5 5 7 10 16 16 17 17 19 18 18 10 10 10 7 9 6
7 4 3 7 7 6 5 4 2 3 3 4 6 5 4 4 5 4 3 4 5 5 5 6 7 6 6 6 6 6 6 5 5 5 6 6 5 5 5 5 5 5 5 5 4 3 3 2 2 2 2 2 1 0 2 3 6 7 6 7 5 3 5 4 5 7 7 6 4 4 3 7 14 15 17 18 18 20 15 10 13 12 11 10 7
3 5 7 8 9 6 6 4 4 3 3 3 7 7 5 5 3 1 4 4 5 5 6 6 6 6 6 6 6 6 6 5 6 6 6 7 6 6 5 5 5 5 5 5 4 4 3 2 1 1 1 1 1 1 1 1 2 6 7 6 6 6 6 5 5 5 4 4 4 4 5 9 12 14 15 16 17 16 11 13 13 13 11 9 5
9 7 6 5 9 9 7 6 5 4 3 3 4 8 6 6 1 3 5 6 6 6 6 6 6 6 6 6 6 5 5 5 5 6 6 6 6 5 5 4 5 5 5 5 4 4 4 3 3 3 2 1 1 1 1 1 3 5 7 7 8 8 8 9 5 4 4 5 6 7 8 10 12 13 15 15 13 16 17 13 15 13 10 5 6
8 8 7 9 9 9 9 8 7 5 5 4 5 6 9 4 2 4 5 6 7 8 8 7 6 6 7 7 8 6 6 5 5 4 5 5 6 5 5 5 4 4 4 4 4 3 3 3 3 3 3 3 2 2 2 2 3 5 6 8 9 9 9 10 8 6 7 8 9 10 12 12 13 12 9 8 7 7 12 11 12 12 7 6 6
11 9 11 11 10 10 10 10 8 3 5 5 6 6 6 5 6 5 6 7 8 9 8 7 7 7 6 7 8 6 6 5 5 5 5 5 5 6 6 5 5 5 4 4 4 4 3 3 3 3 3 3 3 3 3 4 4 4 4 4 6 6 6 7 5 5 5 6 7 8 7 8 7 11 11 8 6 6 6 8 6 6 5 6 6
8 10 10 10 10 10 9 8 8 6 5 6 6 6 5 7 7 8 8 10 9 9 9 8 8 7 6 7 7 8 8 6 5 6 6 5 5 5 6 6 6 6 6 5 5 5 5 5 5 4 4 3 4 3 4 4 4 4 5 4 4 4 5 6 6 4 4 3 4 4 5 5 5 5 7 6 6 4 4 3 4 4 4 4 5
12 9 9 10 11 10 9 9 8 4 5 6 5 3 3 6 8 9 10 11 10 9 10 9 8 7 7 6 7 6 6 6 5 4 3 4 6 5 5 3 2 4 6 6 6 5 5 4 4 4 4 3 2 4 6 5 6 7 7 6 6 6 5 5 6 7 5 2 3 3 4 4 5 6 6 6 5 5 5 4 4 4 4 5 5
9 9 9 10 10 12 12 12 8 6 6 6 4 2 1 2 5 7 10 12 11 10 9 8 7 7 7 7 6 6 5 6 6 6 5 3 3 5 5 5 1 1 4 5 6 4 5 5 4 5 5 6 6 6 6 10 10 11 12 11 9 8 7 6 7 12 7 3 4 5 5 6 6 6 7 6 7 6 6 5 5 5 5 6 6
12 13 11 11 11 11 11 11 8 7 6 5 5 2 2 1 4 6 9 11 11 10 8 8 7 7 7 7 6 6 6 6 6 6 5 6 6 6 6 7 6 6 6 5 5 5 5 5 5 3 3 4 6 5 7 9 10 11 12 12 12 12 11 11 11 7 3 6 6 6 6 6 6 5 6 6 6 6 7 6 6 6 5 6 7
Wind_Direction
209 200 194 195 196 192 188 188 190 192 193 194 193 191 188 181 179 190 188 179 176 180 184 181 181 185 192 193 196 195 197 198 198 201 201 200 193 188 188 191 192 195 198 194 198 197 199 201 203 192 183 188 186 195 197 194 188 174 169 148 153 150 185 183 160 113 101 31 52 45 52 61 107 123 119 123 121 127 116 103 96 78 80 121 137
201 197 201 197 196 195 187 189 184 187 200 195 197 196 192 188 189 191 183 185 185 183 187 195 196 192 187 193 189 189 190 194 201 203 201 200 197 189 189 191 192 193 194 194 196 194 199 202 202 199 188 192 193 195 197 186 179 163 146 138 157 147 187 192 199 111 42 145 133 80 12 9 15 93 123 131 130 110 102 98 85 91 90 125 126
204 204 194 196 196 194 188 189 195 196 196 197 200 195 196 199 200 193 192 188 189 183 183 198 201 202 197 191 188 192 205 201 201 199 195 198 200 193 190 191 190 193 193 194 194 198 200 198 202 199 193 188 193 201 181 182 176 171 167 161 173 171 155 201 182 154 169 147 124 100 165 136 322 56 349 161 123 104 95 98 105 95 109 131 135
210 203 198 198 195 193 190 192 198 197 194 198 199 201 202 205 202 199 196 195 192 193 190 191 195 198 206 189 199 193 195 201 205 205 202 202 203 196 193 191 189 192 192 193 196 197 198 199 199 199 198 192 191 194 185 185 183 178 174 172 152 167 179 218 204 177 144 133 153 186 181 130 166 231 181 238 66 112 103 129 124 122 106 91 92
208 210 203 194 194 195 195 197 192 194 197 197 198 201 204 206 203 197 196 197 197 193 192 182 174 189 196 199 191 207 219 196 199 212 208 205 199 199 198 189 191 193 193 194 195 197 198 199 198 200 199 197 193 194 189 190 188 183 178 168 174 174 190 182 222 195 192 184 142 120 85 154 210 195 126 215 147 109 151 158 154 126 109 106 102
202 203 198 195 196 199 200 196 193 199 201 202 200 203 204 204 200 195 195 196 198 195 190 189 190 193 189 194 199 201 207 197 204 204 200 203 207 196 191 196 194 195 195 196 196 196 198 200 199 199 201 198 194 196 192 188 189 183 186 175 185 188 172 173 192 234 207 204 199 167 157 171 177 190 135 207 248 287 214 267 194 147 131 104 84
223 211 197 194 201 195 197 196 199 200 207 202 203 205 203 202 200 198 194 194 194 193 189 191 197 200 202 206 205 204 206 212 211 208 203 209 205 206 206 201 202 200 199 197 198 198 198 199 201 202 200 196 193 192 195 193 189 188 182 179 185 176 161 176 182 195 141 277 177 155 147 169 163 147 194 103 166 278 292 269 251 186 139 118 116
207 208 202 197 196 195 197 200 199 204 204 196 204 203 202 204 199 199 197 193 193 190 190 192 197 200 205 210 212 213 212 212 201 204 202 196 204 210 211 211 208 208 204 204 201 200 201 200 201 203 200 195 186 197 196 194 188 189 183 184 181 177 177 177 187 185 179 214 183 153 148 108 171 219 188 168 156 163 223 264 277 301 360 148 150
206 203 203 199 198 200 203 202 205 206 199 199 202 201 203 203 202 202 203 200 196 191 193 195 196 199 204 209 215 219 217 217 202 203 203 197 205 209 211 214 212 211 210 206 206 204 202 204 202 204 201 198 190 194 193 185 183 180 185 184 183 183 185 187 175 187 184 189 143 202 134 182 195 33 114 104 136 140 199 188 204 329 354 290 173
213 207 202 203 201 202 203 204 204 205 202 203 203 200 202 201 203 203 208 204 198 194 195 197 197 196 204 210 214 216 213 212 192 203 204 199 209 208 209 211 211 211 210 207 206 205 203 205 205 206 204 199 194 194 189 188 188 185 186 187 186 186 190 182 187 185 191 183 181 164 170 124 127 267 219 118 58 113 164 194 189 169 177 256 264
208 211 209 206 205 204 202 203 208 209 204 201 202 202 202 201 203 204 209 205 199 199 194 199 198 199 207 208 211 213 208 205 204 208 203 203 210 209 207 210 207 210 205 208 205 203 204 203 206 205 201 197 194 192 192 188 187 186 187 187 188 186 187 184 182 186 188 183 178 172 184 182 183 181 192 189 151 148 88 161 159 182 176 181 251
211 206 211 210 212 216 209 212 210 208 201 202 206 204 202 204 203 207 209 205 203 201 197 201 199 204 209 209 211 213 206 205 208 208 203 205 206 207 205 204 208 207 206 207 208 204 202 204 203 201 202 194 198 192 186 185 181 180 182 188 190 189 186 186 179 176 183 189 188 185 186 188 196 188 197 174 164 176 155 160 156 156 65 212 281
208 212 211 209 208 208 208 215 215 206 201 203 204 201 201 203 203 205 211 207 204 199 201 202 201 206 207 208 212 211 211 213 213 214 208 208 207 207 200 206 204 203 207 206 208 202 200 201 198 202 201 199 193 186 185 177 175 179 183 188 188 185 184 181 182 187 180 182 195 196 178 181 212 219 167 158 124 125 131 128 199 120 161 237 273
217 215 215 212 211 212 208 206 208 208 209 207 204 200 199 201 203 207 216 207 204 201 205 205 208 210 208 209 212 208 214 215 217 217 214 212 207 208 204 205 203 207 204 208 205 200 200 202 200 202 198 192 189 187 180 179 177 182 183 188 192 190 175 185 186 183 186 194 170 167 176 179 204 184 175 145 147 130 135 145 142 47 89 201 304
203 211 217 221 222 217 210 206 207 207 208 211 208 204 201 202 202 208 217 209 204 206 205 209 213 212 209 210 212 212 214 215 219 219 217 214 211 210 210 207 208 209 208 210 198 201 202 200 201 198 195 190 185 181 180 179 181 181 187 190 188 178 178 174 179 168 173 170 173 168 160 158 170 186 159 157 146 152 147 156 142 134 92 22 273
233 197 212 216 213 208 208 209 208 204 204 200 202 203 203 207 206 210 214 211 207 209 210 212 214 210 209 210 213 213 214 216 220 219 219 215 214 213 215 213 213 210 212 202 204 200 199 199 197 199 191 186 185 184 179 179 180 181 185 181 183 165 171 175 178 175 177 175 165 150 145 164 168 172 149 146 141 144 139 141 139 146 143 179 286
235 217 205 214 213 205 196 196 197 195 192 193 195 196 200 203 204 210 214 210 207 210 213 213 212 210 210 210 210 211 212 213 215 215 215 213 211 214 215 215 213 211 208 201 201 200 198 196 194 194 189 187 186 186 181 178 175 179 179 179 180 173 170 181 170 179 175 165 160 166 162 157 166 159 136 133 130 122 130 139 156 163 165 137 169
219 218 215 207 201 203 210 216 201 192 190 192 197 195 197 198 198 202 206 206 208 207 209 210 209 211 212 209 209 210 212 215 215 215 210 209 213 214 212 210 211 204 198 193 192 193 194 189 191 192 189 185 187 184 181 177 172 178 181 183 179 170 175 170 177 167 166 162 157 156 153 152 163 155 151 141 133 134 130 137 144 148 151 150 161
246 235 237 241 230 226 219 219 227 227 221 212 212 200 203 208 208 205 207 208 208 205 206 213 210 213 214 214 212 211 212 214 215 214 206 210 212 211 208 211 200 189 185 183 184 183 184 184 185 187 183 187 183 182 180 177 172 173 178 175 165 168 167 173 175 166 167 158 164 165 165 154 156 154 143 131 128 126 130 125 126 119 124 139 144
228 228 223 220 221 218 212 212 218 220 221 226 215 205 214 220 212 221 233 226 212 209 206 210 214 214 218 218 221 219 215 212 211 205 209 213 212 207 206 199 197 180 189 185 182 182 179 179 180 178 182 181 181 183 181 178 175 178 173 173 177 173 175 176 174 173 163 167 163 168 174 163 159 150 143 140 131 121 126 128 135 131 129 132 131
217 203 204 209 214 220 226 225 218 208 131 132 156 191 210 196 216 220 212 217 215 218 208 218 208 214 215 215 215 212 217 213 208 206 210 214 211 203 204 198 173 191 181 182 185 184 183 180 176 179 183 185 185 183 182 178 179 177 179 177 169 172 171 170 160 166 166 163 168 169 175 167 162 153 151 139 129 129 120 122 125 128 134 142 137
205 208 203 204 207 205 123 62 61 89 65 183 323 320 224 200 199 192 197 213 213 219 213 220 214 214 215 219 218 211 209 206 207 207 210 208 205 201 196 182 191 190 180 183 186 185 182 181 181 184 189 191 191 186 183 179 176 172 170 166 169 168 168 168 169 171 174 173 164 165 172 168 177 153 149 144 145 137 138 136 145 146 155 160 162
212 213 217 219 213 202 185 173 173 180 198 214 237 233 235 242 246 231 205 218 201 206 204 201 206 209 217 214 205 208 200 201 203 207 209 204 203 198 189 189 191 185 188 182 184 181 181 181 186 189 190 192 193 192 188 183 180 175 172 175 176 175 172 171 176 178 175 164 163 169 174 166 158 144 148 144 142 144 143 148 154 147 153 160 155
245 248 238 222 215 204 163 204 209 209 210 213 216 220 226 234 246 263 262 279 294 281 270 205 182 170 162 152 165 156 158 174 190 200 200 204 198 195 187 190 186 178 185 190 182 182 180 182 185 190 194 193 194 194 191 192 184 178 177 178 176 180 178 177 178 174 170 169 170 165 177 170 160 149 150 147 150 146 151 151 150 153 147 158 151
227 227 228 230 209 197 211 210 213 224 233 233 232 239 243 250 244 232 241 244 240 241 173 145 137 149 134 137 144 127 159 182 187 185 189 187 183 180 182 185 173 184 187 177 187 184 182 181 187 190 192 195 196 192 192 194 191 186 181 175 176 179 182 181 179 174 170 168 168 177 174 170 163 150 153 155 160 161 159 154 159 157 153 150 139
210 219 206 207 212 218 226 226 222 216 208 211 220 222 223 220 222 203 197 193 181 159 172 164 169 168 177 163 160 163 210 221 222 225 212 197 187 181 180 184 180 183 182 187 181 184 185 184 183 191 197 198 195 194 197 198 191 182 178 175 176 179 180 180 177 171 169 169 171 176 175 170 168 164 168 165 165 166 158 162 161 159 153 146 148
208 212 216 242 256 234 225 223 216 207 202 200 198 206 210 210 216 211 197 184 179 158 170 168 171 174 173 186 191 206 201 219 225 228 229 220 207 200 178 184 190 187 182 184 191 182 189 187 194 196 198 196 195 193 193 188 180 179 178 171 167 166 172 180 183 175 173 170 170 173 174 176 175 171 164 170 169 167 169 172 170 162 157 154 161
260 268 248 226 228 235 229 226 216 213 206 204 201 198 198 195 202 206 201 189 175 141 136 142 147 161 167 169 172 186 225 253 264 249 229 216 203 200 205 197 184 196 200 202 197 200 203 197 194 193 197 192 188 186 182 179 176 178 174 170 169 167 168 176 181 182 178 172 169 174 179 181 179 175 171 170 168 169 164 165 167 156 158 159 169
235 242 235 233 237 229 225 219 216 204 204 207 205 208 206 206 199 194 185 190 172 148 149 140 131 142 161 156 140 123 101 86 119 161 188 210 218 225 211 180 194 202 200 199 201 203 191 202 203 198 194 187 188 192 189 179 164 165 165 165 166 167 170 173 172 170 178 178 168 173 182 185 183 177 174 170 174 167 162 164 169 163 163 166 166
220 224 222 221 225 227 226 217 213 206 206 204 205 204 201 197 200 194 183 190 150 164 161 164 171 178 167 158 174 178 164 132 112 163 244 303 345 339 170 192 207 213 217 197 196 194 193 203 198 192 178 174 186 182 180 178 179 173 172 171 170 171 170 169 167 165 168 180 181 175 182 183 176 170 167 168 166 169 174 170 165 167 166 167 172
223 225 223 222 222 219 211 205 214 209 208 202 205 202 198 200 197 189 187 180 162 159 166 174 199 189 194 197 201 197 215 228 206 170 134 139 141 130 133 132 122 122 148 146 145 162 186 181 183 184 180 181 184 188 185 184 183 178 171 172 171 165 162 168 174 174 174 172 178 177 170 172 169 165 166 166 167 167 165 150 156 166 169 170 167
220 222 220 222 224 213 201 208 214 214 208 205 205 199 190 206 193 193 185 165 163 168 176 185 186 187 194 193 191 187 189 201 191 190 172 155 129 126 127 125 123 135 134 127 156 179 180 179 175 182 189 193 195 190 185 185 183 178 172 163 158 162 172 175 176 177 175 172 171 168 170 168 172 169 160 160 162 163 160 152 163 164 169 178 185
214 215 216 212 209 205 202 213 212 210 207 213 193 177 204 200 189 189 163 172 177 177 176 182 183 182 190 185 181 181 185 184 193 181 163 149 152 144 142 149 175 170 131 158 186 169 185 178 176 185 195 197 202 181 183 186 184 179 175 168 173 173 172 179 180 179 174 174 169 164 164 171 167 161 156 157 153 154 154 150 149 161 171 182 189
215 215 213 215 211 215 215 211 208 209 207 197 183 193 202 186 174 160 172 179 178 184 182 186 180 189 187 183 178 176 179 181 163 153 152 154 163 180 172 158 143 148 173 176 174 187 180 183 189 191 193 184 185 175 176 178 180 182 179 173 167 171 176 180 183 181 178 177 175 170 167 170 171 168 164 160 158 155 154 152 156 165 175 188 194
213 217 219 211 207 211 216 223 234 222 203 168 200 198 149 149 158 165 173 174 183 180 188 180 185 185 181 183 177 175 170 160 163 159 158 166 170 160 164 172 171 180 182 189 187 189 196 192 194 185 176 182 186 172 172 172 171 169 170 158 155 164 177 183 186 185 184 182 179 177 176 174 170 173 174 168 163 164 160 163 165 177 185 191 196
211 210 210 201 203 205 206 215 214 170 182 186 187 165 152 159 154 160 166 173 176 186 188 177 185 183 184 183 174 169 163 164 165 165 165 171 174 177 174 165 156 161 166 158 181 176 187 191 184 172 170 186 180 174 171 170 170 171 167 159 167 174 183 187 188 189 186 186 184 181 177 175 175 176 174 171 167 159 162 166 176 181 187 199 215
216 204 212 209 206 200 207 191 168 185 177 188 148 148 137 139 152 160 162 168 173 188 194 187 183 176 179 178 173 169 171 171 172 171 178 178 175 175 168 159 160 173 174 186 193 188 175 172 175 182 183 186 185 185 177 174 173 171 163 167 173 181 190 190 195 188 188 186 189 186 180 172 172 178 175 174 170 162 165 172 178 183 190 200 216
206 214 225 227 223 213 187 175 170 165 167 142 154 146 141 145 158 160 164 173 182 192 185 184 185 175 173 174 177 174 171 173 172 181 184 182 167 151 165 172 170 171 181 178 144 124 115 153 173 189 191 180 194 198 186 182 177 176 173 173 179 182 189 190 186 177 170 180 187 185 177 173 178 179 177 177 173 166 170 178 178 180 190 207 215
201 198 212 212 179 161 149 135 139 161 183 166 156 150 147 162 167 169 169 176 190 185 180 183 180 171 168 166 169 170 168 167 179 185 172 166 169 159 117 115 94 103 109 112 122 130 125 136 156 161 161 172 170 199 199 192 184 181 175 173 174 178 177 178 161 157 148 164 178 184 188 184 187 179 180 179 176 173 178 181 183 176 195 211 213
178 197 189 159 140 105 104 138 172 193 168 159 152 148 156 157 165 156 173 191 193 186 175 161 155 159 159 154 153 155 150 158 160 134 124 116 105 104 119 120 100 104 104 99 111 129 151 151 139 152 164 163 161 176 193 194 190 189 176 161 160 169 185 176 170 175 178 190 186 188 191 191 188 185 186 185 184 184 184 180 173 189 191 221 187
185 172 131 124 118 127 146 152 152 110 129 135 133 132 148 153 156 169 197 188 155 148 156 157 152 149 146 146 141 152 156 146 139 139 120 106 107 115 112 105 96 81 82 68 63 53 54 44 35 23 38 260 175 182 206 199 196 195 181 173 184 194 184 174 178 179 190 192 195 193 190 195 190 186 192 194 193 193 187 183 190 199 204 136 139
102 123 129 113 101 99 92 68 50 102 123 131 128 133 139 144 155 186 192 155 155 146 145 144 147 142 139 139 141 128 122 129 124 130 128 110 91 95 97 100 91 90 85 76 68 60 57 50 38 42 37 19 20 13 162 228 221 215 202 179 175 198 149 165 169 192 196 210 203 194 199 197 193 189 195 200 199 198 193 190 207 204 178 173 161
135 109 106 124 112 103 96 96 50 63 99 125 121 127 135 138 159 206 177 156 145 137 132 135 133 136 139 138 135 132 130 130 128 124 122 117 116 110 107 107 109 105 102 98 89 85 82 73 55 47 37 25 21 348 195 207 223 217 206 195 167 152 141 159 183 201 206 211 201 207 201 196 200 196 200 204 204 202 197 203 202 196 192 187 160
91 119 133 119 113 111 100 67 46 40 61 108 131 134 139 136 164 139 113 123 127 128 124 122 123 124 123 120 122 121 123 126 129 126 124 129 126 123 118 124 126 127 128 121 114 112 105 97 93 92 63 45 31 32 334 236 216 214 213 187 153 163 154 173 183 211 205 200 197 203 203 204 212 210 210 211 210 206 207 200 193 197 194 190 142
134 132 128 121 128 122 106 73 47 44 50 72 119 128 126 123 131 120 123 122 122 118 113 110 112 112 109 109 102 105 110 114 120 124 123 124 123 124 116 119 120 121 127 124 128 128 130 135 138 163 166 147 116 115 96 149 175 194 196 164 166 167 171 163 184 204 189 198 195 193 196 206 215 221 221 220 221 218 215 204 194 187 191 186 161
114 118 121 123 115 108 106 100 68 51 67 72 78 114 119 133 100 108 114 116 115 111 106 105 104 104 108 108 101 98 100 108 109 113 123 133 136 135 130 132 125 127 128 135 136 141 143 151 174 178 184 173 157 135 125 128 160 186 202 202 186 179 173 179 182 188 192 188 189 187 192 200 208 217 220 219 220 221 220 207 198 192 189 182 157
141 142 135 128 127 123 120 110 99 65 81 86 93 90 115 130 124 125 118 113 110 109 110 110 112 114 114 115 119 121 122 120 121 124 129 136 140 139 138 140 147 143 143 141 143 151 161 169 188 184 169 174 181 178 174 182 182 185 196 204 205 203 187 172 163 169 171 181 187 188 192 196 200 209 215 220 222 219 219 214 202 197 175 169 171
128 133 138 132 133 130 127 120 115 108 100 101 99 108 123 128 132 129 126 119 119 125 127 130 130 130 131 133 131 137 135 136 143 143 139 138 147 149 148 156 157 160 151 159 164 170 181 183 189 181 174 178 194 204 209 193 189 186 194 192 200 201 201 192 182 171 156 162 164 171 185 193 192 203 213 211 211 193 206 204 192 173 161 155 169
146 148 147 143 138 121 119 112 118 109 114 102 104 103 115 133 138 135 131 126 128 130 130 131 135 132 138 139 138 143 142 138 133 114 118 145 150 145 141 149 181 152 157 160 173 179 183 186 168 173 172 204 223 232 236 195 191 188 184 188 200 209 202 196 188 162 125 121 138 167 181 188 196 205 208 204 191 186 196 183 182 164 153 164 173
141 139 132 122 126 126 127 130 132 135 127 121 110 94 55 104 140 140 135 132 135 133 132 136 140 137 139 137 138 139 136 129 124 124 110 54 49 126 141 134 176 187 151 151 146 170 188 175 171 210 180 187 206 225 201 189 197 197 201 201 205 203 198 189 185 180 162 160 188 200 206 200 206 205 212 205 203 200 194 192 205 191 185 186 196
146 137 134 132 135 135 130 121 135 134 129 128 120 118 110 90 145 151 143 139 140 136 135 138 138 141 143 138 135 132 134 129 131 125 113 111 81 41 58 92 108 102 106 110 115 129 147 162 167 208 253 233 238 224 199 194 196 201 202 206 206 207 206 197 188 164 170 195 209 217 222 214 218 217 225 220 205 199 207 204 210 208 212 210 213